Location: Seattle
(47.6064°N, 122.3308°W)
Time: 22:30:50
(UTC-07:00)

ITUPSAT 1 - Pass Details

Date: 04 April 2023
Orbit: 697 x 710 km, 98.5° (Epoch: 29 May)

Event Time Altitude Azimuth Distance (km) Brightness Sun altitude
Rises 00:12:02 0° 358° (N) 3,121 ? -35.1°
Reaches altitude 10° 00:15:33 10° 331° (NNW) 2,194 ? -35.3°
Maximum altitude 00:17:36 13° 305° (NW) 2,005 ? -35.4°
Enters shadow 00:19:14 11° 285° (WNW) 2,119 ? -35.5°
